EW9204 Weather Reports


Display with metric or nautical units.
time (UTC)temp
F
wind
direction
speed
MPH
gust
MPH
rain 1hr
in
rain 24hr
in
rain mn
in
humidity
%
barometer
mb
20260503021533 50 34 0.0 4.0 0.00 0.04 0.04 53 1011.3
20260503021014 50 319 0.0 4.0 0.00 0.04 0.04 51 1011.4
20260503020516 50 30 1.0 4.0 0.00 0.04 0.04 52 1011.5
20260503020034 50 47 1.0 4.0 0.00 0.04 0.04 50 1011.4
20260503015519 50 337 1.0 4.0 0.00 0.04 0.04 50 1011.4
20260503015017 51 26 1.0 5.0 0.00 0.04 0.04 49 1011.5
20260503014532 51 36 2.0 9.0 0.00 0.04 0.04 49 1011.5
20260503014017 51 338 2.0 9.0 0.00 0.04 0.04 49 1011.4
20260503013517 51 0 2.0 9.0 0.00 0.04 0.04 48 1011.5
20260503013032 51 48 2.0 9.0 0.00 0.04 0.04 47 1011.4
20260503012517 51 36 2.0 8.0 0.00 0.04 0.04 47 1011.5
20260503012016 51 249 3.0 12.0 0.00 0.04 0.04 46 1011.5
20260503011534 51 9 2.0 12.0 0.00 0.04 0.04 46 1011.4
20260503011020 52 128 2.0 12.0 0.00 0.04 0.04 45 1011.3
20260503010514 52 300 3.0 9.0 0.00 0.04 0.04 44 1011.3
20260503010034 52 20 3.0 9.0 0.00 0.04 0.04 43 1011.2
20260503005516 52 15 2.0 8.0 0.00 0.04 0.04 43 1011.1
20260503005018 52 319 2.0 9.0 0.00 0.04 0.04 43 1011.1
20260503004534 52 319 2.0 9.0 0.00 0.04 0.04 43 1011.0
20260503004017 52 254 2.0 8.0 0.00 0.04 0.04 43 1010.9
20260503003515 52 303 2.0 8.0 0.00 0.04 0.04 44 1011.0
20260503003032 52 270 1.0 4.0 0.00 0.04 0.04 44 1010.9
20260503002515 52 313 1.0 6.0 0.00 0.04 0.04 45 1010.8
20260503002018 52 23 1.0 6.0 0.00 0.04 0.04 45 1010.9
20260503001530 52 13 1.0 5.0 0.00 0.04 0.04 45 1011.0
20260503001017 52 0 1.0 5.0 0.00 0.04 0.04 49 1010.9
20260503000514 52 26 1.0 4.0 0.00 0.04 0.04 47 1010.9
20260503000032 52 319 1.0 5.0 0.00 0.04 0.04 48 1010.9
20260502235514 53 325 1.0 5.0 0.00 0.04 0.04 48 1011.0
20260502235015 53 309 0.0 4.0 0.00 0.04 0.04 48 1010.9
20260502234536 53 316 1.0 4.0 0.00 0.04 0.04 46 1010.7
20260502234014 54 9 1.0 7.0 0.00 0.04 0.04 44 1010.6
20260502233517 54 0 1.0 7.0 0.00 0.04 0.04 42 1010.6
20260502233030 54 282 1.0 4.0 0.00 0.04 0.04 42 1010.5
20260502232514 54 9 1.0 7.0 0.00 0.04 0.04 42 1010.5
20260502232016 55 338 2.0 7.0 0.00 0.04 0.04 42 1010.5
20260502231537 55 291 2.0 7.0 0.00 0.04 0.04 42 1010.5
20260502231016 55 9 2.0 7.0 0.00 0.04 0.04 42 1010.3
20260502230516 55 298 1.0 4.0 0.00 0.04 0.04 45 1010.4
20260502230030 55 282 1.0 4.0 0.00 0.04 0.04 46 1010.5
20260502225518 55 0 0.0 3.0 0.00 0.04 0.04 45 1010.6
20260502225016 56 234 1.0 3.0 0.00 0.04 0.04 44 1010.5
20260502224532 56 0 0.0 3.0 0.00 0.04 0.04 44 1010.4
20260502224016 57 265 0.0 5.0 0.00 0.04 0.04 47 1010.4
20260502223515 57 93 0.0 5.0 0.00 0.04 0.04 42 1010.4
20260502223032 58 51 1.0 6.0 0.00 0.04 0.04 42 1010.4
20260502222516 58 301 2.0 6.0 0.00 0.04 0.04 40 1010.4
20260502222019 57 325 1.0 6.0 0.00 0.04 0.04 39 1010.5
20260502221536 57 9 2.0 7.0 0.00 0.04 0.04 39 1010.4
20260502221015 57 309 2.0 7.0 0.00 0.04 0.04 40 1010.2
20260502220517 57 247 2.0 7.0 0.00 0.04 0.04 39 1010.2
20260502220045 57 257 2.0 7.0 0.00 0.04 0.04 38 1010.2
20260502215515 57 216 2.0 12.0 0.00 0.04 0.04 38 1010.3
20260502215015 58 328 4.0 12.0 0.00 0.04 0.04 39 1010.2
20260502214533 59 321 3.0 11.0 0.00 0.04 0.04 39 1010.3
20260502214015 60 101 3.0 9.0 0.00 0.04 0.04 37 1010.3
20260502213515 60 325 3.0 8.0 0.00 0.04 0.04 39 1010.2
20260502213035 60 273 1.0 6.0 0.00 0.04 0.04 40 1010.2
20260502212520 59 221 2.0 6.0 0.00 0.04 0.04 41 1010.1
20260502212020 59 228 3.0 7.0 0.00 0.04 0.04 40 1010.2
20260502211533 60 9 2.0 7.0 0.00 0.04 0.04 38 1010.2
20260502211015 59 286 2.0 7.0 0.00 0.04 0.04 40 1010.1
20260502210516 59 305 1.0 7.0 0.00 0.04 0.04 42 1010.1
20260502210031 58 319 2.0 9.0 0.00 0.04 0.04 38 1010.1
20260502205515 58 338 4.0 9.0 0.00 0.04 0.04 37 1010.1
20260502205016 58 309 1.0 7.0 0.00 0.04 0.04 43 1010.1
20260502204535 58 280 2.0 6.0 0.00 0.04 0.04 46 1010.2
20260502204015 58 259 1.0 8.0 0.00 0.04 0.04 44 1010.2
20260502203521 58 67 2.0 11.0 0.00 0.04 0.04 42 1010.2
20260502203043 58 291 2.0 11.0 0.00 0.04 0.04 43 1010.3
20260502202517 58 325 4.0 11.0 0.00 0.04 0.04 40 1010.4
20260502202015 58 305 1.0 9.0 0.00 0.04 0.04 44 1010.4
20260502201538 58 214 4.0 9.0 0.00 0.04 0.04 43 1010.5
20260502201017 58 346 3.0 8.0 0.00 0.04 0.04 43 1010.6
20260502200515 58 71 3.0 8.0 0.00 0.04 0.04 43 1010.5
20260502200030 58 28 2.0 8.0 0.00 0.04 0.04 46 1010.8
20260502195517 57 15 3.0 9.0 0.00 0.04 0.04 45 1010.8
20260502195015 57 189 2.0 9.0 0.00 0.04 0.04 47 1010.8
20260502194540 57 300 4.0 9.0 0.00 0.04 0.04 48 1010.8
20260502194015 57 203 2.0 8.0 0.00 0.04 0.04 49 1011.0
20260502193518 57 341 3.0 10.0 0.00 0.04 0.04 51 1010.9
20260502193035 56 33 3.0 10.0 0.00 0.04 0.04 53 1011.0
20260502192519 56 329 3.0 10.0 0.00 0.04 0.04 62 1011.1
20260502192016 56 329 2.0 11.0 0.00 0.04 0.04 63 1011.2
20260502191540 55 329 4.0 11.0 0.00 0.04 0.04 63 1011.3
20260502191017 55 9 2.0 6.0 0.00 0.04 0.04 63 1011.3
20260502190515 55 57 2.0 10.0 0.00 0.04 0.04 61 1011.4
20260502190032 55 319 2.0 12.0 0.00 0.04 0.04 59 1011.4
20260502185517 55 347 4.0 12.0 0.00 0.04 0.04 58 1011.5
20260502185017 56 316 4.0 12.0 0.00 0.04 0.04 61 1011.6
20260502184538 55 9 2.0 12.0 0.00 0.04 0.04 65 1011.5
20260502184016 55 323 2.0 7.0 0.00 0.04 0.04 67 1011.6
20260502183519 54 0 2.0 6.0 0.00 0.04 0.04 64 1011.6
20260502183029 54 0 2.0 6.0 0.00 0.04 0.04 66 1011.7
20260502182519 54 41 2.0 7.0 0.00 0.04 0.04 68 1011.8
20260502182016 54 15 3.0 9.0 0.00 0.04 0.04 68 1011.9
20260502181537 54 106 3.0 9.0 0.00 0.04 0.04 69 1011.8
20260502181016 54 61 4.0 13.0 0.00 0.04 0.04 69 1011.9
20260502180515 54 22 5.0 13.0 0.00 0.04 0.04 67 1011.9
20260502170514 55 240 2.0 9.0 0.00 0.04 0.04 65 1012.2
20260502164017 54 303 2.0 6.0 0.00 0.04 0.04 65 1012.3
20260502163516 54 325 1.0 8.0 0.00 0.04 0.04 68 1012.2
20260502163048 54 306 3.0 8.0 0.00 0.04 0.04 65 1012.3
20260502162519 54 305 2.0 6.0 0.00 0.04 0.04 67 1012.3
20260502162020 54 338 1.0 8.0 0.00 0.04 0.04 71 1012.2
20260502161532 54 291 2.0 8.0 0.00 0.04 0.04 67 1012.3
20260502161016 54 287 3.0 8.0 0.00 0.04 0.04 68 1012.4
20260502160518 55 325 1.0 9.0 0.00 0.04 0.04 70 1012.5
20260502152014 53 305 3.0 8.0 0.00 0.04 0.04 76 1012.2
20260502151537 52 311 2.0 6.0 0.00 0.04 0.04 75 1012.3
20260502151015 52 309 2.0 6.0 0.00 0.04 0.04 76 1012.3
20260502150514 52 309 2.0 5.0 0.00 0.04 0.04 77 1012.3
20260502130517 50 265 1.0 3.0 0.00 0.04 0.04 90 1012.9
20260502123516 48 221 1.0 3.0 0.00 0.04 0.04 92 1012.5
20260502123034 48 265 0.0 2.0 0.00 0.04 0.04 93 1012.6
20260502122515 48 0 0.0 2.0 0.00 0.04 0.04 93 1012.5
20260502122016 48 334 0.0 3.0 0.00 0.04 0.04 93 1012.3
20260502121530 48 0 1.0 3.0 0.00 0.04 0.04 93 1012.3
20260502121017 48 319 1.0 2.0 0.00 0.04 0.04 93 1012.3
20260502120517 48 316 1.0 2.0 0.00 0.04 0.04 93 1012.3
20260502115519 48 164 0.0 2.0 0.00 0.04 0.04 94 1012.5
20260502115017 47 93 0.0 2.0 0.00 0.04 0.04 93 1012.4
20260502114536 47 68 0.0 2.0 0.00 0.04 0.04 93 1012.4
20260502114017 47 26 0.0 2.0 0.00 0.04 0.04 93 1012.4
20260502113517 47 83 0.0 2.0 0.00 0.04 0.04 94 1012.4
20260502113034 47 0 0.0 2.0 0.00 0.04 0.04 94 1012.4
20260502112514 47 0 0.0 2.0 0.00 0.04 0.04 94 1012.5
20260502112016 47 93 0.0 2.0 0.00 0.04 0.04 94 1012.2
20260502111532 47 9 0.0 2.0 0.00 0.04 0.04 94 1012.1
20260502111017 47 0 0.0 2.0 0.00 0.04 0.04 94 1012.0
20260502110515 46 93 0.0 2.0 0.00 0.04 0.04 94 1012.0
20260502110036 46 51 0.0 2.0 0.02 0.04 0.04 94 1011.6
20260502105516 46 93 0.0 2.0 0.02 0.04 0.04 93 1011.7
20260502105015 46 93 1.0 2.0 0.03 0.04 0.04 93 1011.8
20260502104532 46 9 0.0 3.0 0.03 0.04 0.04 93 1011.8
20260502104016 46 330 1.0 3.0 0.03 0.04 0.04 93 1011.7
20260502103514 46 22 1.0 2.0 0.03 0.04 0.04 93 1011.7
20260502103032 46 9 0.0 2.0 0.03 0.04 0.04 93 1011.6
20260502102515 46 93 1.0 3.0 0.03 0.04 0.04 93 1011.6
20260502102016 46 105 0.0 4.0 0.03 0.04 0.04 93 1011.6
20260502101533 46 80 1.0 4.0 0.03 0.04 0.04 93 1011.8
20260502101016 46 165 1.0 4.0 0.03 0.04 0.04 93 1011.8
20260502100517 46 85 1.0 3.0 0.02 0.03 0.03 93 1011.8
20260502091534 46 325 1.0 3.0 0.00 0.01 0.01 93 1011.6
20260502091017 47 19 1.0 3.0 0.00 0.01 0.01 93 1011.5
20260502090518 47 68 0.0 2.0 0.00 0.01 0.01 93 1011.7
20260502071530 46 321 1.0 3.0 0.00 0.00 0.00 91 1011.7
20260502071018 46 9 0.0 2.0 0.00 0.00 0.00 91 1011.6
20260502070518 46 0 0.0 2.0 0.00 0.00 0.00 91 1011.6
20260502070047 46 111 0.0 2.0 0.00 0.00 0.00 91 1011.5
20260502065518 46 0 0.0 2.0 0.00 0.00 0.00 91 1011.6
20260502065016 46 51 0.0 2.0 0.00 0.00 0.00 91 1011.6
20260502064543 46 61 0.0 2.0 0.00 0.00 0.00 91 1011.5
20260502064017 46 30 0.0 2.0 0.00 0.00 0.00 90 1011.5
20260502063518 46 51 1.0 2.0 0.00 0.00 0.00 90 1011.5
20260502063030 46 0 0.0 2.0 0.00 0.00 0.00 90 1011.5
20260502062517 46 93 0.0 2.0 0.00 0.00 0.00 90 1011.6
20260502062017 46 0 0.0 2.0 0.00 0.00 0.00 89 1011.6
20260502061531 47 9 0.0 2.0 0.00 0.00 0.00 89 1011.8
20260502061014 47 325 0.0 2.0 0.00 0.00 0.00 89 1011.7
20260502060517 47 0 0.0 2.0 0.00 0.00 0.00 89 1011.7
20260502060036 47 338 1.0 2.0 0.00 0.00 0.00 89 1011.7
20260502055517 47 51 1.0 2.0 0.00 0.00 0.00 89 1011.8
20260502055018 47 76 0.0 2.0 0.00 0.00 0.00 89 1011.8
20260502054532 47 76 0.0 2.0 0.00 0.00 0.00 88 1011.8
20260502054016 47 41 0.0 2.0 0.00 0.00 0.00 88 1011.9
20260502053515 47 316 1.0 2.0 0.00 0.00 0.00 88 1011.9
20260502053034 48 0 0.0 2.0 0.00 0.00 0.00 87 1011.8
20260502052517 48 123 1.0 2.0 0.00 0.00 0.00 87 1011.7
20260502052016 48 68 1.0 2.0 0.00 0.00 0.00 87 1011.8
20260502051534 48 105 0.0 2.0 0.00 0.00 0.00 87 1011.9
20260502051016 48 9 0.0 2.0 0.00 0.00 0.00 87 1011.9
20260502050517 48 22 0.0 2.0 0.00 0.00 0.00 86 1011.7
20260502050035 48 126 1.0 2.0 0.00 0.00 0.00 86 1011.7
20260502045515 48 0 1.0 3.0 0.00 0.00 0.00 86 1011.9
20260502045019 48 108 0.0 3.0 0.00 0.00 0.00 86 1011.8
20260502044530 48 9 1.0 3.0 0.00 0.00 0.00 85 1011.7
20260502044016 48 0 0.0 3.0 0.00 0.00 0.00 85 1012.0
20260502043515 48 131 1.0 3.0 0.00 0.00 0.00 85 1011.7
20260502043030 48 111 1.0 2.0 0.00 0.00 0.00 85 1011.9
20260502042515 49 93 0.0 2.0 0.00 0.00 0.00 85 1012.1
20260502042016 49 212 0.0 3.0 0.00 0.00 0.00 85 1012.2
20260502041534 49 0 0.0 3.0 0.00 0.00 0.00 85 1012.1
20260502041016 49 0 1.0 3.0 0.00 0.00 0.00 85 1011.9
20260502040515 49 0 0.0 5.0 0.00 0.00 0.00 85 1011.9
20260502040035 49 0 0.0 5.0 0.00 0.00 0.00 85 1012.1
20260502035514 49 178 1.0 5.0 0.00 0.00 0.00 85 1012.0
20260502035016 48 108 1.0 4.0 0.00 0.00 0.00 85 1012.0
20260502034537 48 149 1.0 4.0 0.00 0.00 0.00 85 1012.0
20260502034019 48 140 0.0 2.0 0.00 0.00 0.00 85 1011.9
20260502033515 48 0 0.0 2.0 0.00 0.00 0.00 85 1011.9
20260502033031 48 71 0.0 2.0 0.00 0.00 0.00 85 1012.0
20260502032516 48 291 1.0 2.0 0.00 0.00 0.00 85 1012.1
20260502032015 47 238 0.0 4.0 0.00 0.00 0.00 85 1012.1
20260502031530 47 250 1.0 4.0 0.00 0.00 0.00 85 1012.2
20260502031016 47 123 0.0 2.0 0.00 0.00 0.00 85 1012.3
20260502030517 47 76 1.0 3.0 0.00 0.00 0.00 85 1012.4
20260502030032 47 291 0.0 3.0 0.00 0.00 0.00 85 1012.4
20260502025517 47 116 1.0 3.0 0.00 0.00 0.00 85 1012.4
20260502025016 47 137 1.0 3.0 0.00 0.00 0.00 85 1012.5
20260502024534 47 149 1.0 2.0 0.00 0.00 0.00 85 1012.5
20260502024016 46 108 0.0 2.0 0.00 0.00 0.00 85 1012.5
20260502023516 47 126 0.0 2.0 0.00 0.00 0.00 85 1012.5
20260502023030 47 0 0.0 2.0 0.00 0.00 0.00 84 1012.4
20260502022515 47 9 0.0 2.0 0.00 0.00 0.00 84 1012.3
20260502022016 47 9 0.0 2.0 0.00 0.00 0.00 83 1012.4